This is the latest recevied weather packets stored in our database for station/object KF5WCW-1. If no packets are shown the sender has not sent any weather packets the latest 10 day(s).
| Time | Temp. | Humidity | Pressure | Rain* | Wind** | Luminosity | Snow |
|---|---|---|---|---|---|---|---|
| 1777781475 | 8.33° C | 56% | 0 hPa | 0 mm | - | - | - |
| 1777781175 | 8.89° C | 55% | 0 hPa | 0 mm | - | - | - |
| 1777780875 | 8.89° C | 52% | 0 hPa | 0 mm | - | - | - |
| 1777780575 | 8.89° C | 50% | 0 hPa | 0 mm | - | - | - |
| 1777780275 | 9.44° C | 51% | 0 hPa | 0 mm | - | - | - |
| 1777779975 | 9.44° C | 49% | 0 hPa | 0 mm | - | - | - |
| 1777779675 | 9.44° C | 48% | 0 hPa | 0 mm | - | - | - |
| 1777779375 | 10° C | 48% | 0 hPa | 0 mm | - | - | - |
| 1777779075 | 10° C | 47% | 0 hPa | 0 mm | - | - | - |
| 1777778775 | 10° C | 45% | 0 hPa | 0 mm | - | - | - |
| 1777778475 | 10° C | 46% | 0 hPa | 0 mm | - | - | - |
| 1777778175 | 10.56° C | 45% | 0 hPa | 0 mm | - | - | - |
| 1777777875 | 10.56° C | 47% | 0 hPa | 0 mm | - | - | - |
| 1777777575 | 10.56° C | 47% | 0 hPa | 0 mm | - | - | - |
| 1777777275 | 10.56° C | 45% | 0 hPa | 0 mm | - | - | - |
| 1777776975 | 11.11° C | 43% | 0 hPa | 0 mm | - | - | - |
| 1777776675 | 10.56° C | 42% | 0 hPa | 0 mm | - | - | - |
| 1777776375 | 11.11° C | 45% | 0 hPa | 0 mm | - | - | - |
| 1777776075 | 11.11° C | 44% | 0 hPa | 0 mm | - | - | - |
| 1777775775 | 11.11° C | 43% | 0 hPa | 0 mm | - | - | - |
| 1777775475 | 11.67° C | 43% | 0 hPa | 0 mm | - | - | - |
| 1777775175 | 12.22° C | 37% | 0 hPa | 0 mm | - | - | - |
| 1777774875 | 12.22° C | 36% | 0 hPa | 0 mm | - | - | - |
| 1777774575 | 12.22° C | 36% | 0 hPa | 0 mm | - | - | - |
| 1777774275 | 12.78° C | 35% | 0 hPa | 0 mm | - | - | - |
* Rain latest hour (hover to see other rain measurements)
** Current wind speed in m/s (hover to see current wind gust speed)